SM4KYN

Lookups:   1527
| Bureau | Direct | LoTW | eQSL
Name:Anders
QTH:68137 Kristinehamn
Country:Sweden
Grid:JO79BH
 
Web:
Email:
Hidden
Hidden
Hidden
Sweden
 
  
  
ITU: 18
CQ:14
 
  
  
   
QSL via:


Source Activity Date time
DXC DX de N5IT: 7165.0 PJ2/SM4KYN Tnx Andy 73 0117Z 2018-01-16 01:17:00
DXC DX de K2CD: 7165.0 PJ2/SM4KYN 0101Z 2018-01-16 01:01:00
DXC DX de DK1NO: 3510.0 PJ2/SM4KYN andy cq dx 2312Z 2018-01-13 23:12:00
DXC DX de N4WMB: 7134.0 PJ2/SM4KYN 0142Z 2018-01-11 01:42:00
DXC DX de M3ZDZ: 7134.0 PJ2/SM4KYN nice signal Andy 5/9 0124Z 2018-01-11 01:24:00
DXC DX de N3XLS: 7195.0 PJ2/SM4KYN PJ2/SM4KYN 0233Z 2018-01-10 02:33:00
DXC DX de W8SBH: 7195.0 PJ2/SM4KYN EM98EL<>FK52MC 0146Z 2018-01-10 01:46:00
DXC DX de VE3VTG: 7195.0 PJ2/SM4KYN 0112Z 2018-01-10 01:12:00
DXC DX de KM4OTH: 7195.0 PJ2/SM4KYN 0111Z 2018-01-10 01:11:00
DXC DX de OD5YA: 7143.0 PJ2/SM4KYN Tnx Daniel and adndy from od5ya 2018-01-09 21:26:00
DXC DX de SB4B: 50110.0 PJ2/SM4KYN CQ SA 2238Z 2018-01-02 22:38:00
DXC DX de G1TDN: 7118.0 PJ2/SM4KYN CURACAO TNX.ANDERS.73SHNY 2 2018-01-01 23:34:00
DXC DX de VE7SNC: 7118.0 PJ2/SM4KYN lkoud here 2332Z 2018-01-01 23:32:00
DXC DX de SM6DOO: 7118.0 PJ2/SM4KYN Tack Anders & 73 2301Z 2018-01-01 23:01:00
DXC DX de VE3XIN: 14135.0 PJ2/SM4KYN holding S9+10 in Toronto 2018-01-01 19:26:00
DXC DX de VE3XIN: 14135.0 PJ2/SM4KYN Tnx for pleasent QSO! 1915Z 2018-01-01 19:15:00
DXC DX de SB4B: 14135.0 PJ2/SM4KYN CQ 1843Z 2018-01-01 18:43:00
DXC DX de SM5YRA: 14308.0 PJ2/SM4KYN USB 1253Z 2017-12-31 12:53:00
DXC DX de OK2IPW: 14308.0 PJ2/SM4KYN 1245Z 2017-12-31 12:45:00
DXC DX de N5IT: 7132.5 PJ2/SM4KYN 59+ into TX 73 Andy 0127Z 2017-12-29 01:27:00
DXC DX de LU1JHD: 7132.5 PJ2/SM4KYN Tnx 59 Andy 0123Z 2017-12-29 01:23:00
DXC DX de UR4MSF: 7132.5 PJ2/SM4KYN cq eu 0104Z 2017-12-29 01:04:00
DXC DX de AF8C: 7132.5 PJ2/SM4KYN 0056Z 2017-12-29 00:56:00
DXC DX de W7MGW: 7132.5 PJ2/SM4KYN 59 PHX Op Andy 0055Z 2017-12-29 00:55:00
DXC DX de F4HPT: 14171.0 PJ2/SM4KYN TNX 73S ANDY 1431Z 2017-12-28 14:31:00
DXC DX de YO2MSB: 7175.0 PJ2/SM4KYN tnx QSO, 59 here 0018Z 2017-12-28 00:18:00
DXC DX de AC0DQ: 7146.0 PJ2/SM4KYN correct call. 0008Z 2017-12-27 00:08:00
DXC DX de AA2IA: 7146.0 PJ2/SM4KYN call correction 2341Z 2017-12-26 23:41:00
DXC DX de SM4KYN: 50110.0 PJ2/SM4KYN CQ ant pointing SA 1503Z 2017-12-23 15:03:00
DXC DX de SM4KYN: 50098.0 PJ2/SM4KYN CQ 1831Z 2017-12-21 18:31:00
DXC DX de W6SDM: 21245.0 PJ2/SM4KYN 59 in Arizona 2121Z 2017-12-17 21:21:00
DXC DX de K3GO: 21245.0 PJ2/SM4KYN 2055Z 2017-12-17 20:55:00
DXC DX de SM7TVJ: 7002.0 PJ2/SM4KYN 0021Z 2017-12-16 00:21:00
DXC DX de YY5SKA: 7168.0 PJ2/SM4KYN POWER CQ DX CURACAO 0158Z 2015-01-14 01:58:00
DXC DX de 8P6ET: 7168.0 PJ2/SM4KYN tnx for contact 0147Z 2015-01-14 01:47:00
DXC DX de PJ2/SM4KYN: 7008.0 SK2AO Hrd 559 0114Z 2015-01-14 01:14:00
DXC DX de UR3EL: 7020.0 PJ2/SM4KYN 0217Z 2015-01-13 02:17:00
DXC DX de PJ2/SM4KYN: 50010.0 LU7FTF/B 569 0116Z 2015-01-13 01:16:00
DXC DX de G0LVX: 28440.0 PJ2/SM4KYN 5/++Anders Best 73 1211Z 2015-01-12 12:11:00
DXC DX de IK7MOI: 28000.0 PJ2/SM4KYN JN80OX<> 1438Z 2015-01-11 14:38:00
DXC DX de N0AH: 28530.1 PJ2/SM4KYN 2357Z 2015-01-10 23:57:00
DXC DX de PY2KC: 28530.1 PJ2/SM4KYN 2349Z 2015-01-10 23:49:00
DXC DX de JN1NDY: 28530.0 PJ2/SM4KYN 2337Z 2015-01-10 23:37:00
DXC DX de PJ2/SM4KYN: 50050.5 LU8DCH/B 559 in Curacao 0122Z 2015-01-10 01:22:00
DXC DX de LU5FF: 50113.0 PJ2/SM4KYN tnx 599 2342Z 2015-01-09 23:42:00
DXC DX de ON4AEF: 28420.0 PJ2/SM4KYN Op Anders K2/10 1530Z 2015-01-08 15:30:00
DXC DX de DL5KBT: 28420.0 PJ2/SM4KYN 59 tnx 1447Z 2015-01-08 14:47:00
DXC DX de EA8TL: 28420.0 PJ2/SM4KYN Om Anders 1439Z 2015-01-08 14:39:00
DXC DX de SV1OCA: 28420.0 PJ2/SM4KYN 1427Z 2015-01-08 14:27:00
DXC DX de LA2IMA: 28420.0 PJ2/SM4KYN TNX QSO 73 1423Z 2015-01-08 14:23:00
DXC DX de ON6EF: 28420.0 PJ2/SM4KYN very nice operator 1418Z 2015-01-08 14:18:00
DXC DX de EW7LO: 7157.0 PJ2/SM4KYN EU olsj People 0235Z 2015-01-08 02:35:00
DXC DX de TI2CCC: 7157.0 PJ2/SM4KYN 0226Z 2015-01-08 02:26:00
DXC DX de FM5DN: 7157.0 PJ2/SM4KYN cqing eu 0208Z 2015-01-08 02:08:00
DXC DX de F1UMO: 28420.0 PJ2/SM4KYN cq dx Anders tnx qso 1430Z 2015-01-06 14:30:00
DXC DX de F1UMO: 28420.0 PJ2/SM4KYN iota sa-099 tnx Anders 1430Z 2015-01-06 14:30:00
DXC DX de PG4DX: 28420.0 PJ2/SM4KYN USB 1421Z 2015-01-06 14:21:00
DXC DX de IK3PCZ: 28420.0 PJ2/SM4KYN loud 1406Z 2015-01-06 14:06:00
DXC DX de DO6LY: 28420.0 PJ2/SM4KYN Tnx Anders 73´s 1325Z 2015-01-06 13:25:00
DXC DX de PT7ZT: 28382.0 PJ2/SM4KYN SA099 1934Z 2015-01-04 19:34:00
DXC DX de K4IDK: 28382.0 PJ2/SM4KYN 1929Z 2015-01-04 19:29:00
DXC DX de NT9E: 28382.0 PJ2/SM4KYN 1906Z 2015-01-04 19:06:00
DXC DX de WD5DJX: 28382.0 PJ2/SM4KYN SSB 59 TNX ANDERS 1903Z 2015-01-04 19:03:00
DXC DX de WX4ET: 28382.0 PJ2/SM4KYN 59 TN 1843Z 2015-01-04 18:43:00
DXC DX de 9A7JCY: 28520.0 PJ2/SM4KYN 1350Z 2015-01-04 13:50:00
DXC DX de HB3YFC: 28440.0 PJ2/SM4KYN Hi Anders 1225Z 2015-01-04 12:25:00
DXC DX de VK2FJC: 28440.0 PJ2/SM4KYN 57 in VK2 1224Z 2015-01-04 12:24:00
DXC DX de IK3SCB: 28440.0 PJ2/SM4KYN SIMPLEX 1216Z 2015-01-04 12:16:00
DXC DX de UT1DX: 28440.0 PJ2/SM4KYN 1143Z 2015-01-02 11:43:00
DXC DX de HB9BRU: 28440.0 PJ2/SM4KYN 1313Z 2014-12-31 13:13:00
DXC DX de LI9NKA: 28440.0 PJ2/SM4KYN swl 5/9 1312Z 2014-12-31 13:12:00
DXC DX de SV1PAJ: 28440.0 PJ2/SM4KYN 1308Z 2014-12-31 13:08:00
DXC DX de M0BSV: 28440.0 PJ2/SM4KYN anders 1304Z 2014-12-31 13:04:00
DXC DX de G4ELJ: 28520.0 PJ2/SM4KYN v.loud 1354Z 2014-12-30 13:54:00
DXC DX de JF1NUV: 28448.0 PJ2/SM4KYN QSY Hr FB sig 2344Z 2014-12-28 23:44:00
DXC DX de JF1NUV: 28440.0 PJ2/SM4KYN QSO with JO1WXO 2340Z 2014-12-28 23:40:00
DXC DX de WB7BBI: 28491.0 PJ2/SM4KYN EL29HV<> heard 59 in QSO 2014-12-19 23:20:00
DXC DX de K4AAP: 28491.0 PJ2/SM4KYN 59 plus 2305Z 2014-12-19 23:05:00
DXC DX de HC5F: 28491.0 PJ2/SM4KYN 2250Z 2014-12-19 22:50:00
DXC DX de XE2EX: 28491.0 PJ2/SM4KYN Curacao 2249Z 2014-12-19 22:49:00
DXC DX de KD6AF: 28491.0 PJ2/SM4KYN Anders in Curaçao 2240Z 2014-12-19 22:40:00
DXC DX de RX6B: 28480.0 PJ2/SM4KYN tnx fb qso, Anders! 1313Z 2014-12-18 13:13:00
DXC DX de SM4FZW: 28480.0 PJ2/SM4KYN S9 i Nora Anders GL... 1311 2014-12-18 13:11:00
DXC DX de SP9QMP: 28480.0 PJ2/SM4KYN 1237Z 2014-12-18 12:37:00
DXC DX de N0UN: 14195.0 PJ2/SM4KYN 0232Z 2014-01-15 02:32:00
DXC DX de IK7MWW: 28460.0 PJ2/SM4KYN 1430Z 2014-01-14 14:30:00
DXC DX de SP9QZI: 28460.0 PJ2/SM4KYN 1426Z 2014-01-14 14:26:00
DXC DX de CT1DZY: 28459.9 PJ2/SM4KYN 1425Z 2014-01-14 14:25:00
DXC DX de ON5LGS: 28460.0 PJ2/SM4KYN anders 1341Z 2014-01-14 13:41:00
DXC DX de TB5ZND: 28460.0 PJ2/SM4KYN 57 anders gl fb 1337Z 2014-01-14 13:37:00
DXC DX de EA8AJY: 21230.0 PJ2/SM4KYN TFE 1714Z 2014-01-13 17:14:00
DXC DX de SV1BGR: 21230.0 PJ2/SM4KYN 56 in Athens73 Stavros Tnx HNY 2014-01-13 17:04:00
DXC DX de GW4AYJ: 21230.0 PJ2/SM4KYN 1652Z 2014-01-13 16:52:00
DXC DX de F8DDE: 21230.0 PJ2/SM4KYN Anders 1651Z 2014-01-13 16:51:00
DXC DX de SM7WUL: 28475.3 PJ2/SM4KYN TNX 1547Z 2014-01-13 15:47:00
DXC DX de IN3XSV: 28475.0 PJ2/SM4KYN ciao Anders tnx 1413Z 2014-01-13 14:13:00
DXC DX de PY8WW: 28475.0 PJ2/SM4KYN 1409Z 2014-01-13 14:09:00
DXC DX de OK2ZDL: 28475.0 PJ2/SM4KYN TNX 1352Z 2014-01-13 13:52:00
DXC DX de AF4HX: 28475.0 PJ2/SM4KYN 1351Z 2014-01-13 13:51:00
DXC DX de N5NHJ: 21225.0 PJ2/SM4KYN QSB 1907Z 2014-01-12 19:07:00
DXC DX de NK3Y: 21225.0 PJ2/SM4KYN 1841Z 2014-01-12 18:41:00
DXC DX de WW0W: 28400.0 PJ2/SM4KYN 59 into So California 2007Z 2014-01-10 20:07:00
DXC DX de IW1ARK: 21218.0 PJ2/SM4KYN 1716Z 2014-01-10 17:16:00
DXC DX de EA3AXZ: 21218.0 PJ2/SM4KYN 59++ cq 73´s Anders 1710Z 2014-01-10 17:10:00
DXC DX de IT9CZJ: 21218.0 PJ2/SM4KYN cq 1701Z 2014-01-10 17:01:00
DXC DX de W9BIK: 21218.0 PJ2/SM4KYN tnx Anders 1653Z 2014-01-10 16:53:00
DXC DX de ON7ZM: 21218.0 PJ2/SM4KYN 1622Z 2014-01-10 16:22:00
DXC DX de IN3XSV: 21218.0 PJ2/SM4KYN tnx ciao 1347Z 2014-01-10 13:47:00
DXC DX de SM7TVJ: 21213.0 PJ2/SM4KYN 1330Z 2014-01-10 13:30:00
DXC DX de W3ON: 28420.0 PJ2/SM4KYN 1349Z 2014-01-08 13:49:00
DXC DX de UA2FT: 28420.0 PJ2/SM4KYN 1312Z 2014-01-08 13:12:00
DXC DX de K8ND: 28414.9 PJ2/SM4KYN 1958Z 2014-01-07 19:58:00
DXC DX de SV1KWD: 7165.0 PJ2/SM4KYN 5/9 H.N.Y from Greece 73!! 2014-01-07 00:01:00
DXC DX de I8YAV: 7165.0 PJ2/SM4KYN 2342Z 2014-01-06 23:42:00
DXC DX de RK6CC: 7165.0 PJ2/SM4KYN TNX QSO 2330Z 2014-01-06 23:30:00
DXC DX de IK6JRI: 7164.5 PJ2/SM4KYN 2327Z 2014-01-06 23:27:00
DXC DX de IK6JRI: 716500.0 PJ2/SM4KYN 2324Z 2014-01-06 23:24:00
DXC DX de W3ZL: 28420.0 PJ2/SM4KYN 1452Z 2014-01-06 14:52:00
DXC DX de DO9RWG: 28420.0 PJ2/SM4KYN 59+10-Anders-73TNXHNY-Robert 2014-01-06 13:34:00
DXC DX de IW1CHX: 28515.0 PJ2/SM4KYN 59 1453Z 2014-01-05 14:53:00
DXC DX de IZ3PYL: 28515.0 PJ2/SM4KYN OP. ANDERS 1449Z 2014-01-05 14:49:00
DXC DX de IT9RWB: 28561.8 PJ2/SM4KYN 1438Z 2014-01-05 14:38:00
DXC DX de IT9RWB: 28515.0 PJ2/SM4KYN correct freq. 1438Z 2014-01-05 14:38:00
DXC DX de 4Z5NU: 28515.0 PJ2/SM4KYN Tnx QSO 73! 1410Z 2014-01-05 14:10:00
DXC DX de DH8BQA: 28515.0 PJ2/SM4KYN Anders, nice signal 1408Z 2014-01-05 14:08:00
DXC DX de IZ1CQZ: 28515.0 PJ2/SM4KYN 1402Z 2014-01-05 14:02:00
DXC DX de 9A7JCY: 28515.0 PJ2/SM4KYN 1354Z 2014-01-05 13:54:00
DXC DX de SQ3LLJ: 28515.0 PJ2/SM4KYN TNX QSO 5/9+20 73 1352Z 2014-01-05 13:52:00
DXC DX de PY2KC: 21260.0 PJ2/SM4KYN 2327Z 2014-01-04 23:27:00
DXC DX de KB7IUV: 21260.0 PJ2/SM4KYN Nice sig in AZ! 2326Z 2014-01-04 23:26:00
DXC DX de JA8COE: 21260.0 PJ2/SM4KYN cq Good sig in JA8 2324Z 2014-01-04 23:24:00
DXC DX de IZ2XMK: 28388.0 PJ2/SM4KYN Strong in Milano area 1429Z 2014-01-04 14:29:00
DXC DX de RA3AJT: 28388.0 PJ2/SM4KYN tnx QSO 1423Z 2014-01-04 14:23:00
DXC DX de 9A5TIM: 28388.0 PJ2/SM4KYN JN65XK<> 1418Z 2014-01-04 14:18:00
DXC DX de YO6DDF: 28387.8 PJ2/SM4KYN Tks for NewOne 10m Anders 73's Val 2014-01-04 14:12:00
DXC DX de IZ8VYU: 21320.0 PJ2/SM4KYN tnx 73 1410Z 2014-01-04 14:10:00
DXC DX de IZ8VYU: 28388.0 PJ2/SM4KYN tnx 73 1410Z 2014-01-04 14:10:00